Home   Weather   Tallahassee   Past weeks
Flag for USA

Past Weather in Tallahassee, Florida, USA — Yesterday and Last 2 Weeks

Now
90 °F

Partly sunny.


Feels Like: 102 °F
Forecast: 95 / 74 °F
Wind: 13 mph from Northwest

Location: Tallahassee Regional Airport

Current Time: Jul 15, 2019 at 7:20:08 pm

Latest Report: Jul 15, 2019 at 6:53 pm


Visibility: 10 mi

Pressure: 30.07 "Hg

Humidity: 63%

Dew Point: 76 °F

Location of TallahasseeLocation

Past Weather in Tallahassee — Graph

°F

Tallahassee Temperature Yesterday

Maximum temperature yesterday: 93 °F (at 2:53 pm)
Minimum temperature yesterday: 75 °F (at 5:53 am)
Average temperature yesterday: 84 °F

High & Low Weather Summary for the Past Weeks

 TemperatureHumidityPressure
High98 °F (Jul 2, 3:53 pm)100% (Jul 4, 4:53 am)30.17 "Hg (Jul 4, 4:53 am)
Low72 °F (Jul 7, 3:37 am)45% (Jul 2, 3:53 pm)29.83 "Hg (Jul 8, 4:53 pm)
Average82 °F85%29.99 "Hg
* Reported Jun 30 5:53 pm — Jul 15 5:53 pm, Tallahassee. Weather by CustomWeather, © 2019

Note: Actual official high and low records may vary slightly from our data, if they occured in-between our weather recording intervals... More about our weather records

Advertising

Tallahassee Weather History for the Previous 24 Hours

Scroll right to see more
 ConditionsComfort  
Time TempWeatherWind HumidityBarometerVisibility
5:53 pm
Mon, Jul 15
94 °FScattered clouds.8 mph51%30.06 "Hg10 mi
4:53 pm95 °FScattered clouds.7 mph49%30.06 "Hg10 mi
3:53 pm95 °FPassing clouds.5 mph49%30.08 "Hg10 mi
2:53 pm94 °FPartly sunny.7 mph51%30.09 "Hg10 mi
1:53 pm94 °FScattered clouds.3 mph56%30.11 "Hg10 mi
12:53 pm92 °FScattered clouds.5 mph58%30.13 "Hg10 mi
11:53 am91 °FPassing clouds.5 mph57%30.13 "Hg10 mi
10:53 am88 °FPassing clouds.6 mph63%30.13 "Hg10 mi
9:53 am85 °FPassing clouds.7 mph70%30.13 "Hg10 mi
8:53 am81 °FPassing clouds.6 mph82%30.12 "Hg10 mi
7:53 am78 °FSunny.No wind93%30.11 "Hg10 mi
6:53 am75 °FPassing clouds.No wind96%30.10 "Hg10 mi
5:53 am76 °FPassing clouds.No wind100%30.08 "Hg10 mi
4:53 am76 °FClear.No wind100%30.07 "Hg10 mi
3:53 am76 °FClear.No wind100%30.07 "Hg10 mi
2:53 am76 °FClear.3 mph97%30.09 "Hg10 mi
1:53 am77 °FClear.No wind100%30.10 "Hg10 mi
12:53 am77 °FClear.No wind100%30.11 "Hg10 mi
11:53 pm
Sun, Jul 14
80 °FClear.No wind94%30.11 "Hg10 mi
10:53 pm80 °FPassing clouds.No wind94%30.11 "Hg10 mi
9:53 pm82 °FPassing clouds.No wind88%30.09 "Hg10 mi
8:53 pm84 °FPassing clouds.3 mph80%30.10 "Hg10 mi
7:53 pm88 °FBroken clouds.3 mph65%30.10 "Hg10 mi
Weather by CustomWeather, © 2019

See weather overview

LIVE PARTIAL LUNAR ECLIPSE – Watch the eclipse as it happens